Bluewater, NM

7:04 PM MDT on September 25, 2016 (GMT -0600)
Grants-Milan Municipal

Weather History for KGNT - July, 2014

Change the Weather History Date:

Friday, July 4, 2014

  Actual Average Record
Temperature  
Mean Temperature 68 °F -  
Max Temperature 83 °F 88 °F 101 °F (1989)
Min Temperature 52 °F 52 °F 44 °F (1956)
Cooling Degree Days 2    
Growing Degree Days 18 (Base 50)    
Moisture  
Dew Point 46 °F    
Average Humidity 49    
Maximum Humidity 85    
Minimum Humidity 19    
Precipitation  
Precipitation 0.00 in - - ()
Sea Level Pressure  
Sea Level Pressure 30.36 in    
Wind  
Wind Speed 9 mph (South)    
Max Wind Speed 20 mph    
Max Gust Speed 26 mph    
Visibility 10 miles    
Events Rain , Thunderstorm    
Averages and records for this station are not official NWS values.
T = Trace of Precipitation, MM = Missing Value Source: NWS Daily Summary

Daily Weather History Graph

Daily Weather History Graph

Search for Another Location

Airport or City:

Trip Planner

Search our weather history database for the weather conditions in past years. The results will help you decide how hot, cold, wet, or windy it might be!

Date:

Astronomy

Jul. 04, 2014 Rise Set
Actual Time 6:02 AM MDT 8:29 PM MDT
Civil Twilight 5:32 AM MDT 8:59 PM MDT
Nautical Twilight 4:56 AM MDT 9:35 PM MDT
Astronomical Twilight 4:15 AM MDT 10:15 PM MDT
Moon 12:45 PM MDT (7/4) 12:08 AM MDT (7/4)
Length of Visible Light 15h 26m
Length of Day
14h 27m
Waxing Crescent, 43% of the Moon is Illuminated
Jul 4
Waxing Crescent
Jul 5
First Quarter
Jul 12
Full
Jul 18
Last Quarter
Jul 26
New

Hourly Weather History & Observations

Time (MDT) Temp. Dew Point Humidity Pressure Visibility Wind Dir Wind Speed Gust Speed Precip Events Conditions
12:15 AM 60.8 °F 52.0 °F 73% 30.42 in 10.0 mi SSE 15.0 mph 21.9 mph N/A   Scattered Clouds
12:35 AM 60.3 °F 52.0 °F 74% 30.42 in 10.0 mi SSE 15.0 mph 21.9 mph N/A   Scattered Clouds
12:55 AM 59.9 °F 51.8 °F 75% 30.41 in 10.0 mi SSE 12.7 mph - N/A   Mostly Cloudy
1:15 AM 59.4 °F 51.6 °F 76% 30.40 in 10.0 mi SSE 9.2 mph - N/A   Mostly Cloudy
1:35 AM 59.0 °F 51.4 °F 76% 30.40 in 10.0 mi South 9.2 mph - N/A   Scattered Clouds
1:55 AM 58.1 °F 50.9 °F 77% 30.40 in 10.0 mi South 10.4 mph - N/A   Clear
2:15 AM 57.9 °F 50.9 °F 77% 30.38 in 10.0 mi South 10.4 mph - N/A   Clear
2:35 AM 57.6 °F 50.5 °F 77% 30.38 in 10.0 mi South 10.4 mph - N/A   Clear
2:55 AM 57.4 °F 50.2 °F 77% 30.38 in 10.0 mi South 10.4 mph - N/A   Clear
3:15 AM 57.6 °F 50.2 °F 76% 30.38 in 10.0 mi South 11.5 mph - N/A   Clear
3:35 AM 57.4 °F 50.0 °F 76% 30.38 in 10.0 mi South 9.2 mph - N/A   Clear
3:55 AM 56.8 °F 50.0 °F 78% 30.38 in 10.0 mi South 8.1 mph - N/A   Clear
4:15 AM 54.5 °F 49.3 °F 83% 30.38 in 10.0 mi South 6.9 mph - N/A   Clear
4:35 AM 54.5 °F 49.5 °F 83% 30.38 in 10.0 mi SSW 5.8 mph - N/A   Clear
4:55 AM 53.6 °F 48.6 °F 83% 30.38 in 10.0 mi SSW 3.5 mph - N/A   Scattered Clouds
5:15 AM 53.6 °F 48.4 °F 82% 30.38 in 10.0 mi Calm Calm - N/A   Mostly Cloudy
5:35 AM 53.1 °F 47.7 °F 82% 30.38 in 10.0 mi Calm Calm - N/A   Overcast
5:55 AM 52.0 °F 47.1 °F 83% 30.38 in 10.0 mi Calm Calm - N/A   Mostly Cloudy
6:15 AM 52.7 °F 46.9 °F 81% 30.38 in 10.0 mi Calm Calm - N/A   Scattered Clouds
6:35 AM 52.2 °F 47.8 °F 85% 30.38 in 10.0 mi NNW 6.9 mph - N/A   Clear
6:55 AM 54.7 °F 49.1 °F 81% 30.39 in 10.0 mi Calm Calm - N/A   Clear
7:15 AM 56.3 °F 49.6 °F 78% 30.40 in 10.0 mi NW 5.8 mph - N/A   Clear
7:35 AM 58.1 °F 49.8 °F 74% 30.40 in 10.0 mi NW 3.5 mph - N/A   Clear
7:55 AM 59.5 °F 49.6 °F 70% 30.40 in 10.0 mi NNW 4.6 mph - N/A   Clear
8:15 AM 61.7 °F 50.0 °F 65% 30.40 in 10.0 mi North 4.6 mph - N/A   Clear
8:35 AM 63.9 °F 50.4 °F 61% 30.40 in 10.0 mi NNW 5.8 mph - N/A   Clear
8:55 AM 64.6 °F 50.2 °F 60% 30.41 in 10.0 mi Calm Calm - N/A   Clear
9:15 AM 67.1 °F 49.5 °F 53% 30.40 in 10.0 mi Calm Calm - N/A   Clear
9:35 AM 69.6 °F 48.2 °F 46% 30.40 in 10.0 mi SE 4.6 mph - N/A   Clear
10:15 AM 72.9 °F 48.6 °F 42% 30.39 in 10.0 mi ESE 4.6 mph - N/A   Clear
10:35 AM 75.0 °F 48.0 °F 38% 30.38 in 10.0 mi ESE 5.8 mph - N/A   Clear
10:55 AM 75.9 °F 46.9 °F 36% 30.38 in 10.0 mi SE 6.9 mph - N/A   Clear
11:15 AM 77.7 °F 43.9 °F 30% 30.38 in 10.0 mi East 6.9 mph - N/A   Clear
11:35 AM 78.8 °F 42.6 °F 28% 30.37 in 10.0 mi NE 3.5 mph - N/A   Clear
11:55 AM 78.3 °F 42.4 °F 28% 30.37 in 10.0 mi Calm Calm - N/A   Clear
12:15 PM 80.1 °F 43.3 °F 27% 30.36 in 10.0 mi Calm Calm - N/A   Clear
12:35 PM 80.4 °F 41.7 °F 25% 30.35 in 10.0 mi WSW 3.5 mph - N/A Thunderstorm Clear
12:55 PM 82.8 °F 40.8 °F 23% 30.34 in 10.0 mi West 6.9 mph - N/A   Clear
1:15 PM 80.6 °F 39.6 °F 23% 30.34 in 10.0 mi SSW 8.1 mph - N/A   Scattered Clouds
1:35 PM 80.1 °F 40.6 °F 25% 30.33 in 10.0 mi SW 12.7 mph 17.3 mph N/A   Scattered Clouds
1:55 PM 80.6 °F 43.5 °F 27% 30.32 in 10.0 mi SW 12.7 mph - N/A   Clear
2:15 PM 80.4 °F 42.1 °F 26% 30.31 in 10.0 mi SSW 10.4 mph - N/A Thunderstorm Clear
2:35 PM 83.5 °F 40.1 °F 21% 30.31 in 10.0 mi South 8.1 mph - N/A Thunderstorm Clear
2:55 PM 83.1 °F 40.5 °F 22% 30.31 in 10.0 mi South 6.9 mph - N/A Thunderstorm Clear
3:15 PM 83.8 °F 37.8 °F 19% 30.30 in 10.0 mi West 5.8 mph - N/A   Scattered Clouds
3:35 PM 82.4 °F 39.2 °F 21% 30.30 in 10.0 mi East 6.9 mph - N/A   Mostly Cloudy
3:55 PM 80.8 °F 42.1 °F 25% 30.31 in 10.0 mi ESE 16.1 mph 23.0 mph N/A Thunderstorm Overcast
4:15 PM 73.9 °F 48.4 °F 40% 30.32 in 10.0 mi East 19.6 mph 26.5 mph N/A Rain Light Rain
4:35 PM 78.6 °F 46.2 °F 32% 30.31 in 10.0 mi East 18.4 mph 24.2 mph N/A   Mostly Cloudy
4:55 PM 77.2 °F 44.4 °F 31% 30.30 in 10.0 mi East 13.8 mph 24.2 mph N/A   Scattered Clouds
5:15 PM 77.4 °F 44.6 °F 31% 30.30 in 10.0 mi ESE 18.4 mph 25.3 mph N/A   Scattered Clouds
5:35 PM 78.3 °F 41.7 °F 27% 30.29 in 10.0 mi ESE 15.0 mph 19.6 mph N/A   Scattered Clouds
5:55 PM 78.4 °F 40.8 °F 26% 30.28 in 10.0 mi ESE 10.4 mph - N/A   Clear
6:15 PM 79.0 °F 40.8 °F 26% 30.28 in 10.0 mi SE 8.1 mph - N/A   Scattered Clouds
6:35 PM 78.3 °F 40.3 °F 26% 30.28 in 10.0 mi South 9.2 mph - N/A   Scattered Clouds
6:55 PM 78.1 °F 40.6 °F 26% 30.29 in 10.0 mi South 8.1 mph - N/A   Mostly Cloudy
7:15 PM 78.1 °F 42.3 °F 28% 30.29 in 10.0 mi SW 5.8 mph - N/A   Overcast
7:35 PM 75.9 °F 42.3 °F 30% 30.29 in 10.0 mi West 11.5 mph 18.4 mph N/A   Scattered Clouds
7:55 PM 74.3 °F 43.7 °F 33% 30.30 in 10.0 mi SW 9.2 mph 18.4 mph N/A   Clear
8:15 PM 72.9 °F 45.1 °F 37% 30.31 in 10.0 mi SW 12.7 mph 18.4 mph N/A   Clear
8:35 PM 72.0 °F 44.1 °F 37% 30.31 in 10.0 mi WSW 9.2 mph - N/A   Clear
8:55 PM 71.1 °F 43.2 °F 37% 30.32 in 10.0 mi North 6.9 mph - N/A   Clear
9:15 PM 71.6 °F 42.8 °F 35% 30.32 in 10.0 mi North 5.8 mph - N/A   Clear
9:35 PM 69.6 °F 42.8 °F 38% 30.34 in 10.0 mi NE 4.6 mph - N/A   Clear
9:55 PM 69.8 °F 43.7 °F 39% 30.34 in 10.0 mi North 4.6 mph - N/A   Clear
10:15 PM 66.7 °F 43.7 °F 43% 30.35 in 10.0 mi Calm Calm - N/A   Clear
10:35 PM 65.5 °F 44.4 °F 46% 30.36 in 10.0 mi Calm Calm - N/A   Scattered Clouds
10:55 PM 65.7 °F 44.4 °F 46% 30.38 in 10.0 mi NE 3.5 mph - N/A   Mostly Cloudy
11:15 PM 69.1 °F 46.9 °F 45% 30.38 in 10.0 mi NNE 4.6 mph - N/A   Scattered Clouds
11:35 PM 65.5 °F 46.9 °F 51% 30.38 in 10.0 mi WNW 6.9 mph - N/A   Scattered Clouds
11:55 PM 64.8 °F 46.8 °F 52% 30.38 in 10.0 mi NW 6.9 mph - N/A   Scattered Clouds